Change the Weather History Date:

Monday, February 18, 2013

  Actual Average (KINT) Record (KINT)
Temperature  
Mean Temperature 36 °F -  
Max Temperature 55 °F 50 °F 73 °F (2011)
Min Temperature 16 °F 33 °F 6 °F (1968)
Degree Days  
Heating Degree Days 30    
Moisture  
Dew Point 11 °F    
Average Humidity 40    
Maximum Humidity 62    
Minimum Humidity 19    
Precipitation  
Precipitation 0.00 in - - ()
Sea Level Pressure  
Sea Level Pressure 30.25 in    
Wind  
Wind Speed 2 mph (South)    
Max Wind Speed 12 mph    
Max Gust Speed 18 mph    
Visibility 10 miles    
Events      
Averages and records for this station are not official NWS values.
T = Trace of Precipitation, MM = Missing Value Source: NWS Daily Summary

Daily Weather History Graph

Daily Weather History Graph

Search for Another Location

Airport or City:

Trip Planner

Search our weather history database for the weather conditions in past years. The results will help you decide how hot, cold, wet, or windy it might be!

Date:

Astronomy

Feb. 18, 2013 Rise Set
Actual Time 7:06 AM EST 6:06 PM EST
Civil Twilight 6:40 AM EST 6:32 PM EST
Nautical Twilight 6:10 AM EST 7:02 PM EST
Astronomical Twilight 5:40 AM EST 7:32 PM EST
Moon 11:55 AM EST (2/18) 1:40 AM EST (2/18)
Length of Visible Light 11h 52m
Length of Day
11h 00m
First Quarter, 58% of the Moon is Illuminated
Feb 18
First Quarter
Feb 25
Full
Mar 4
Last Quarter
Mar 11
New
Mar 19
First Quarter

Hourly Weather History & Observations

Time (EST) Temp. Windchill Dew Point Humidity Pressure Visibility Wind Dir Wind Speed Gust Speed Precip Events Conditions
12:15 AM 21.0 °F - -2.9 °F 35% 30.21 in 10.0 mi Calm Calm - N/A   Clear
12:35 AM 20.8 °F - -6.7 °F 30% 30.22 in 10.0 mi Calm Calm - N/A   Clear
12:55 AM 21.0 °F - -4.7 °F 32% 30.22 in 10.0 mi Calm Calm - N/A   Clear
1:15 AM 20.1 °F - -5.1 °F 33% 30.23 in 10.0 mi Calm Calm - N/A   Clear
1:35 AM 19.4 °F - -2.2 °F 39% 30.23 in 10.0 mi Calm Calm - N/A   Clear
1:55 AM 19.4 °F - -3.8 °F 36% 30.23 in 10.0 mi Calm Calm - N/A   Clear
2:15 AM 18.5 °F - -2.7 °F 39% 30.24 in 10.0 mi Calm Calm - N/A   Clear
2:35 AM 19.0 °F - -0.8 °F 42% 30.25 in 10.0 mi Calm Calm - N/A   Clear
2:55 AM 19.4 °F - 0.7 °F 44% 30.25 in 10.0 mi Calm Calm - N/A   Clear
3:15 AM 18.5 °F - -0.0 °F 44% 30.25 in 10.0 mi Calm Calm - N/A   Clear
3:35 AM 17.8 °F - 2.3 °F 51% 30.25 in 10.0 mi Calm Calm - N/A   Clear
3:55 AM 18.7 °F - 1.4 °F 47% 30.25 in 10.0 mi Calm Calm - N/A   Clear
4:15 AM 18.1 °F - 1.0 °F 47% 30.25 in 10.0 mi Calm Calm - N/A   Clear
4:35 AM 18.3 °F - 2.3 °F 50% 30.26 in 10.0 mi Calm Calm - N/A   Clear
4:55 AM 18.9 °F - 7.7 °F 62% 30.27 in 10.0 mi Calm Calm - N/A   Clear
5:15 AM 19.0 °F - 4.8 °F 54% 30.28 in 10.0 mi Calm Calm - N/A   Clear
5:35 AM 19.0 °F - 4.3 °F 53% 30.29 in 10.0 mi Calm Calm - N/A   Clear
5:55 AM 18.0 °F - 2.3 °F 50% 30.29 in 10.0 mi Calm Calm - N/A   Clear
6:15 AM 16.9 °F - 2.3 °F 53% 30.29 in 10.0 mi Calm Calm - N/A   Clear
6:35 AM 18.1 °F - 5.7 °F 58% 30.29 in 10.0 mi Calm Calm - N/A   Clear
6:55 AM 17.8 °F - 4.6 °F 57% 30.30 in 10.0 mi Calm Calm - N/A   Clear
7:15 AM 17.6 °F - 4.6 °F 57% 30.30 in 10.0 mi Calm Calm - N/A   Clear
7:55 AM 22.1 °F - 10.6 °F 61% 30.31 in 10.0 mi Calm Calm - N/A   Clear
8:15 AM 26.8 °F - 15.1 °F 61% 30.32 in 10.0 mi Calm Calm - N/A   Clear
8:35 AM 31.5 °F - 18.1 °F 58% 30.32 in 10.0 mi Calm Calm - N/A   Clear
8:55 AM 34.3 °F - 22.3 °F 61% 30.32 in 10.0 mi Calm Calm - N/A   Clear
9:35 AM 38.5 °F - 19.6 °F 47% 30.33 in 10.0 mi Calm Calm - N/A   Clear
9:55 AM 39.6 °F 37.4 °F 17.8 °F 41% 30.32 in 10.0 mi SSW 3.5 mph - N/A   Clear
10:15 AM 41.9 °F 39.0 °F 15.8 °F 35% 30.32 in 10.0 mi SSW 4.6 mph - N/A   Clear
10:55 AM 44.2 °F 41.8 °F 12.9 °F 28% 30.32 in 10.0 mi South 4.6 mph - N/A   Clear
11:15 AM 45.9 °F 42.3 °F 11.3 °F 25% 30.32 in 10.0 mi SSE 6.9 mph - N/A   Clear
11:35 AM 46.4 °F 42.4 °F 9.7 °F 23% 30.31 in 10.0 mi SSW 8.1 mph - N/A   Clear
11:55 AM 47.5 °F - 10.8 °F 23% 30.31 in 10.0 mi SSW 6.9 mph - N/A   Clear
12:15 PM 48.9 °F - 11.8 °F 23% 30.30 in 10.0 mi SW 6.9 mph - N/A   Clear
12:35 PM 50.9 °F - 13.8 °F 23% 30.29 in 10.0 mi WSW 4.6 mph - N/A   Clear
12:55 PM 50.9 °F - 12.7 °F 22% 30.27 in 10.0 mi South 6.9 mph - N/A   Clear
1:15 PM 51.1 °F - 12.6 °F 21% 30.27 in 10.0 mi SW 11.5 mph 16.1 mph N/A   Clear
1:35 PM 53.1 °F - 14.0 °F 21% 30.25 in 10.0 mi SSW 8.1 mph - N/A   Clear
1:55 PM 53.6 °F - 12.4 °F 19% 30.24 in 10.0 mi South 5.8 mph - N/A   Clear
2:15 PM 54.5 °F - 13.1 °F 19% 30.24 in 10.0 mi South 8.1 mph - N/A   Clear
2:35 PM 54.1 °F - 14.0 °F 20% 30.23 in 10.0 mi SSW 10.4 mph 18.4 mph N/A   Clear
2:55 PM 54.7 °F - 14.9 °F 21% 30.22 in 10.0 mi SSW 5.8 mph - N/A   Clear
3:15 PM 54.5 °F - 15.8 °F 22% 30.22 in 10.0 mi SSW 6.9 mph - N/A   Clear
3:35 PM 55.4 °F - 16.7 °F 22% 30.21 in 10.0 mi South 5.8 mph - N/A   Clear
3:55 PM 55.4 °F - 16.7 °F 22% 30.21 in 10.0 mi SW 5.8 mph - N/A   Clear
4:35 PM 53.2 °F - 17.6 °F 25% 30.20 in 10.0 mi South 8.1 mph - N/A   Clear
4:55 PM 52.3 °F - 18.7 °F 27% 30.21 in 10.0 mi SSW 9.2 mph - N/A   Clear
5:15 PM 50.9 °F - 19.0 °F 28% 30.21 in 10.0 mi South 4.6 mph - N/A   Clear
5:35 PM 50.2 °F - 20.1 °F 31% 30.21 in 10.0 mi South 5.8 mph - N/A   Clear
6:15 PM 47.1 °F - 20.7 °F 35% 30.22 in 10.0 mi SSW 4.6 mph - N/A   Clear
7:15 PM 45.0 °F 43.5 °F 21.9 °F 40% 30.22 in 10.0 mi South 3.5 mph - N/A   Clear
7:55 PM 41.7 °F - 18.0 °F 38% 30.21 in 10.0 mi Calm Calm - N/A   Clear
8:15 PM 39.4 °F - 13.6 °F 35% 30.20 in 10.0 mi Calm Calm - N/A   Clear
8:35 PM 38.7 °F - 14.0 °F 37% 30.20 in 10.0 mi Calm Calm - N/A   Clear
8:55 PM 37.9 °F 34.4 °F 17.6 °F 44% 30.19 in 10.0 mi SSE 4.6 mph - N/A   Clear
9:15 PM 39.6 °F 37.4 °F 21.2 °F 48% 30.19 in 10.0 mi SSE 3.5 mph - N/A   Clear
9:35 PM 39.6 °F 36.3 °F 21.7 °F 49% 30.19 in 10.0 mi SSE 4.6 mph - N/A   Clear
9:55 PM 39.6 °F 35.4 °F 22.6 °F 51% 30.18 in 10.0 mi SSE 5.8 mph - N/A   Clear
10:15 PM 40.1 °F 36.1 °F 23.9 °F 52% 30.19 in 10.0 mi SSE 5.8 mph - N/A   Clear
10:35 PM 40.1 °F 38.0 °F 24.1 °F 53% 30.19 in 10.0 mi SSE 3.5 mph - N/A   Clear
10:55 PM 39.4 °F 37.2 °F 23.4 °F 53% 30.17 in 10.0 mi SE 3.5 mph - N/A   Clear
11:15 PM 37.8 °F 35.3 °F 21.6 °F 52% 30.16 in 10.0 mi ESE 3.5 mph - N/A   Clear
11:35 PM 37.8 °F 34.2 °F 22.5 °F 54% 30.15 in 10.0 mi SE 4.6 mph - N/A   Clear
11:55 PM 37.8 °F 34.2 °F 23.4 °F 56% 30.15 in 10.0 mi SE 4.6 mph - N/A   Clear